{"data":{"norad_id":58160,"epoch":"2026-05-24T14:32:32.567136Z","epoch_age_seconds":109069,"freshness":"FRESH","line1":"1 58160U 23166L   26144.60593249 -.00000445  00000+0 -25833-5 0  9993","line2":"2 58160  53.1607 226.9035 0000952  97.3585 262.7525 15.31692983144807","mean_motion":15.31692983,"eccentricity":9.52e-5,"inclination_deg":53.1607,"raan_deg":226.9035,"arg_perigee_deg":97.3585,"mean_anomaly_deg":262.7525,"bstar":-2.5833e-6,"rev_number":14480,"period_min":94.013618654803,"perigee_km":470.10889753609,"apogee_km":471.41292769865,"semimajor_km":6848.8979126174,"source":"CELESTRAK","updated_at":"2026-05-25T13:38:18.538651Z"}}